Regional Weather Roundup
Issued by NWS

Home | Current Version | Previous Version | Graphics & Text | Print | Product List | Glossary On
Versions: 1 2 3 4 5 6 7 8 9 10 11 12 13 14 15 16 17 18 19 20 21 22 23 24 25 26 27 28 29 30 31 32 33 34 35 36 37 38 39 40 41 42 43 44 45 46 47 48 49 50
000
ASUS43 KLMK 301510
RWRKY
KENTUCKY REGIONAL WEATHER ROUNDUP
NATIONAL WEATHER SERVICE LOUISVILLE KY
1100 AM EDT MON MAR 30 2015

NOTE "FAIR" INDICATES FEW OR NO CLOUDS BELOW 12,000 FEET
WITH NO SIGNIFICANT WEATHER AND/OR OBSTRUCTIONS TO VISIBILITY.

KYZ001>023-026-027-061>063-070>075-301600-
WESTERN AND SOUTH CENTRAL KENTUCKY

CITY           SKY/WX    TMP DP  RH WIND       PRES   REMARKS
PADUCAH        SUNNY     58  31  35 N9        30.23R
HENDERSON      SUNNY     54  36  50 W8        30.21R
OWENSBORO      SUNNY     54  36  50 NW9       30.21R
HOPKINSVILLE   SUNNY     56  33  40 N8        30.21R
BOWLING GREEN  SUNNY     58  38  47 NW8       30.19R
GLASGOW        SUNNY     55  37  50 W10       30.18R
$$

KYZ024-025-028>034-038-045-046-053-301600-
NORTH CENTRAL KENTUCKY

CITY           SKY/WX    TMP DP  RH WIND       PRES   REMARKS
LOUISVILLE/SDF MOSUNNY   55  36  48 W13       30.16R
LOUISVILLE/LOU SUNNY     54  35  48 NW12      30.15R
FORT KNOX      SUNNY     53  37  55 NW13      30.15R
$$

KYZ035>037-039>044-047>052-055>060-089>105-301600-
NORTHEAST KENTUCKY

CITY           SKY/WX    TMP DP  RH WIND       PRES   REMARKS
LEXINGTON      MOSUNNY   53  35  50 NW8       30.14R
COVINGTON      MOSUNNY   50  38  63 W12       30.11R
FRANKFORT      MOSUNNY   52  34  50 VRB7G17   30.13R
$$

KYZ054-064>069-076>088-106>120-301600-
SOUTHEAST KENTUCKY

CITY           SKY/WX    TMP DP  RH WIND       PRES   REMARKS
JACKSON        MOSUNNY   49  32  52 NW6       30.12R
LONDON         MOSUNNY   54  36  50 VRB7      30.13R
SOMERSET       MOSUNNY   52  37  58 NW8       30.16R
MIDDLESBORO    MOSUNNY   53  41  63 NW10      30.14R
MONTICELLO     NOT AVBL
$$




USA.gov is the U.S. government's official web portal to all federal, state and local government web resources and services.